Arctic Village, AK

1:40 AM AKST on January 24, 2017 (GMT -0900)
Arctic Village

Weather History for PARC - January, 2013

Change the Weather History Date:

Monday, January 7, 2013

  Actual Average Record
Temperature  
Mean Temperature -8 °F -  
Max Temperature 1 °F -8 °F 33 °F (2005)
Min Temperature -20 °F -28 °F -62 °F (1972)
Degree Days  
Heating Degree Days 74    
Moisture  
Dew Point -18 °F    
Average Humidity 55    
Maximum Humidity 100    
Minimum Humidity 27    
Precipitation  
Precipitation 0.00 in - - ()
Sea Level Pressure  
Sea Level Pressure 29.42 in    
Wind  
Wind Speed 0 mph (North)    
Max Wind Speed 0 mph    
Max Gust Speed -    
Visibility 10 miles    
Events      
Averages and records for this station are not official NWS values.
T = Trace of Precipitation, MM = Missing Value Source: NWS Daily Summary

Daily Weather History Graph

Daily Weather History Graph

Search for Another Location

Airport or City:

Trip Planner

Search our weather history database for the weather conditions in past years. The results will help you decide how hot, cold, wet, or windy it might be!

Date:

Astronomy

Jan. 07, 2013 Rise Set
Actual Time 11:59 AM AKST 1:38 PM AKST
Civil Twilight 9:51 AM AKST 3:46 PM AKST
Nautical Twilight 8:27 AM AKST 5:10 PM AKST
Astronomical Twilight 7:17 AM AKST 6:20 PM AKST
Moon 6:22 AM AKST (1/7) 11:02 AM AKST (1/7)
Length of Visible Light 5h 54m
Length of Day
1h 38m
Waning Crescent, 21% of the Moon is Illuminated
Jan 7
Waning Crescent
Jan 11
New
Jan 18
First Quarter
Jan 26
Full
Feb 3
Last Quarter

Hourly Weather History & Observations

Time (AKST) Temp. Dew Point Humidity Pressure Visibility Wind Dir Wind Speed Gust Speed Precip Events Conditions
12:16 AM -9.4 °F - N/A% 29.41 in 10.0 mi Calm Calm - N/A   Clear
12:36 AM -14.8 °F - N/A% 29.41 in 10.0 mi Calm Calm - N/A   Clear
12:56 AM -14.8 °F - N/A% 29.41 in 10.0 mi Calm Calm - N/A   Clear
1:16 AM -13.0 °F - N/A% 29.41 in 10.0 mi Calm Calm - N/A   Clear
1:36 AM -14.8 °F - N/A% 29.41 in 10.0 mi Calm Calm - N/A   Clear
1:56 AM -13.0 °F - N/A% 29.41 in 10.0 mi Calm Calm - N/A   Clear
2:16 AM -14.8 °F - N/A% 29.40 in 10.0 mi Calm Calm - N/A   Clear
3:36 AM -13.0 °F - N/A% 29.39 in 10.0 mi Calm Calm - N/A   Clear
3:56 AM -11.2 °F - N/A% 29.39 in 10.0 mi Calm Calm - N/A   Clear
4:16 AM -11.2 °F - N/A% 29.39 in 10.0 mi Calm Calm - N/A   Clear
4:36 AM -9.4 °F - N/A% 29.39 in 10.0 mi Calm Calm - N/A   Scattered Clouds
4:56 AM -13.0 °F - N/A% 29.39 in 10.0 mi Calm Calm - N/A   Scattered Clouds
5:16 AM -13.0 °F - N/A% 29.40 in 10.0 mi Calm Calm - N/A   Partly Cloudy
5:36 AM -11.2 °F - N/A% 29.40 in 6.0 mi Calm Calm - N/A   Clear
5:56 AM -14.8 °F - N/A% 29.39 in 10.0 mi Calm Calm - N/A   Partly Cloudy
6:16 AM -13.0 °F -29.2 °F 44% 29.39 in 10.0 mi Calm Calm - N/A   Partly Cloudy
6:36 AM -11.2 °F -27.4 °F 45% 29.39 in 10.0 mi Calm Calm - N/A   Scattered Clouds
6:56 AM -11.2 °F -20.2 °F 64% 29.39 in 10.0 mi Calm Calm - N/A   Mostly Cloudy
7:16 AM -13.0 °F - N/A% 29.39 in 10.0 mi Calm Calm - N/A   Partly Cloudy
7:36 AM -11.2 °F - N/A% 29.39 in 10.0 mi Calm Calm - N/A   Mostly Cloudy
7:56 AM -5.8 °F - N/A% 29.38 in 10.0 mi Calm Calm - N/A   Overcast
8:16 AM -5.8 °F -29.2 °F 32% 29.38 in 10.0 mi Calm Calm - N/A   Overcast
8:36 AM -4.0 °F -27.4 °F 32% 29.39 in 10.0 mi Calm Calm - N/A   Overcast
8:56 AM -2.2 °F -20.2 °F 42% 29.39 in 10.0 mi Calm Calm - N/A   Overcast
9:16 AM -2.2 °F -7.6 °F 78% 29.39 in 10.0 mi Calm Calm - N/A   Overcast
9:36 AM -2.2 °F -13.0 °F 60% 29.39 in 10.0 mi Calm Calm - N/A   Overcast
9:56 AM -2.2 °F -29.2 °F 27% 29.39 in 10.0 mi Calm Calm - N/A   Overcast
10:16 AM -0.4 °F -16.6 °F 46% 29.39 in 10.0 mi Calm Calm - N/A   Overcast
10:36 AM -0.4 °F -11.2 °F 60% 29.39 in 10.0 mi Calm Calm - N/A   Overcast
10:56 AM -0.4 °F -11.2 °F 60% 29.40 in 10.0 mi Calm Calm - N/A   Overcast
11:16 AM -0.4 °F -7.6 °F 72% 29.40 in 10.0 mi Calm Calm - N/A   Overcast
11:36 AM -0.4 °F -5.8 °F 78% 29.40 in 10.0 mi Calm Calm - N/A   Overcast
11:56 AM 1.4 °F -2.2 °F 85% 29.40 in 10.0 mi Calm Calm - N/A   Overcast
12:16 PM 1.4 °F -16.6 °F 43% 29.40 in 10.0 mi Calm Calm - N/A   Overcast
12:36 PM 1.4 °F -20.2 °F 36% 29.40 in 10.0 mi Calm Calm - N/A   Overcast
12:56 PM 1.4 °F -5.8 °F 72% 29.40 in 10.0 mi Calm Calm - N/A   Overcast
1:16 PM -0.4 °F -7.6 °F 72% 29.40 in 10.0 mi Calm Calm - N/A   Overcast
1:36 PM -0.4 °F -9.4 °F 66% 29.40 in 10.0 mi Calm Calm - N/A   Overcast
2:16 PM -2.2 °F -20.2 °F 42% 29.40 in 10.0 mi Calm Calm - N/A   Clear
2:36 PM -2.2 °F -11.2 °F 66% 29.41 in 10.0 mi Calm Calm - N/A   Clear
2:56 PM -2.2 °F -5.8 °F 85% 29.41 in 10.0 mi Calm Calm - N/A   Clear
3:16 PM -4.0 °F -13.0 °F 65% 29.41 in 10.0 mi Calm Calm - N/A   Clear
3:36 PM -5.8 °F - N/A% 29.41 in 10.0 mi Calm Calm - N/A   Partly Cloudy
3:56 PM -5.8 °F -27.4 °F 35% 29.41 in 10.0 mi Calm Calm - N/A   Scattered Clouds
4:16 PM -5.8 °F -23.8 °F 42% 29.42 in 10.0 mi Calm Calm - N/A   Mostly Cloudy
4:36 PM -5.8 °F -25.6 °F 38% 29.42 in 10.0 mi Calm Calm - N/A   Mostly Cloudy
4:56 PM -5.8 °F -23.8 °F 42% 29.41 in 10.0 mi Calm Calm - N/A   Mostly Cloudy
5:16 PM -7.6 °F -25.6 °F 41% 29.42 in 10.0 mi Calm Calm - N/A   Mostly Cloudy
5:36 PM -7.6 °F -20.2 °F 54% 29.42 in 10.0 mi Calm Calm - N/A   Clear
5:56 PM -11.2 °F -22.0 °F 59% 29.42 in 7.0 mi Calm Calm - N/A   Clear
6:36 PM -9.4 °F -29.2 °F 37% 29.43 in 7.0 mi Calm Calm - N/A   Clear
6:56 PM -9.4 °F - N/A% 29.44 in 10.0 mi Calm Calm - N/A   Clear
7:16 PM -9.4 °F - N/A% 29.43 in 10.0 mi Calm Calm - N/A   Clear
7:56 PM -11.2 °F - N/A% 29.44 in 10.0 mi Calm Calm - N/A   Clear
8:16 PM -13.0 °F - N/A% 29.45 in 8.0 mi Calm Calm - N/A   Clear
8:36 PM -13.0 °F - N/A% 29.45 in 10.0 mi Calm Calm - N/A   Clear
8:56 PM -11.2 °F -29.2 °F 41% 29.45 in 10.0 mi Calm Calm - N/A   Clear
9:16 PM -13.0 °F -27.4 °F 49% 29.46 in 7.0 mi Calm Calm - N/A   Clear
9:36 PM -14.8 °F - N/A% 29.46 in 5.0 mi Calm Calm - N/A   Clear
9:56 PM -16.6 °F -22.0 °F 76% 29.47 in 10.0 mi Calm Calm - N/A   Clear
10:16 PM -13.0 °F -13.0 °F 100% 29.48 in 10.0 mi Calm Calm - N/A   Clear
10:36 PM -18.4 °F - N/A% 29.48 in 10.0 mi Calm Calm - N/A   Clear
10:56 PM -16.6 °F - N/A% 29.49 in 10.0 mi Calm Calm - N/A   Clear
11:16 PM -18.4 °F - N/A% 29.50 in 10.0 mi Calm Calm - N/A   Clear
11:36 PM -18.4 °F - N/A% 29.50 in 10.0 mi Calm Calm - N/A   Clear
11:56 PM -20.2 °F - N/A% 29.51 in 10.0 mi Calm Calm - N/A   Clear